This is the latest recevied weather packets stored in our database for station/object K5UBE. If no packets are shown the sender has not sent any weather packets the latest 10 day(s).
| Time | Temp. | Humidity | Pressure | Rain* | Wind** | Luminosity | Snow |
|---|---|---|---|---|---|---|---|
| 1777853738 | 23.33° C | 28% | 1016.2 hPa | 0 mm | - | - | - |
| 1777853434 | 22.78° C | 27% | 1016.1 hPa | 0 mm | - | - | - |
| 1777853131 | 22.78° C | 28% | 1016.2 hPa | 0 mm | - | - | - |
| 1777852829 | 23.33° C | 28% | 1016.3 hPa | 0 mm | - | - | - |
| 1777852527 | 23.33° C | 27% | 1016.4 hPa | 0 mm | - | - | - |
| 1777852223 | 23.89° C | 27% | 1016.4 hPa | 0 mm | - | - | - |
| 1777851921 | 24.44° C | 25% | 1016.2 hPa | 0 mm | - | - | - |
| 1777851619 | 23.89° C | 26% | 1016.3 hPa | 0 mm | - | - | - |
| 1777851315 | 23.33° C | 28% | 1016.6 hPa | 0 mm | - | - | - |
| 1777851011 | 23.89° C | 27% | 1016.4 hPa | 0 mm | - | - | - |
| 1777850708 | 23.33° C | 27% | 1016.3 hPa | 0 mm | - | - | - |
| 1777850406 | 23.33° C | 27% | 1016.4 hPa | 0 mm | - | - | - |
| 1777850104 | 23.33° C | 27% | 1016.5 hPa | 0 mm | - | - | - |
| 1777849800 | 23.33° C | 28% | 1016.2 hPa | 0 mm | - | - | - |
| 1777849496 | 23.33° C | 28% | 1016.4 hPa | 0 mm | - | - | - |
| 1777849194 | 23.33° C | 27% | 1016.5 hPa | 0 mm | - | - | - |
| 1777848891 | 23.33° C | 27% | 1016.5 hPa | 0 mm | - | - | - |
| 1777848586 | 23.33° C | 28% | 1016.8 hPa | 0 mm | - | - | - |
| 1777848283 | 22.78° C | 28% | 1016.7 hPa | 0 mm | - | - | - |
| 1777847981 | 23.33° C | 27% | 1016.7 hPa | 0 mm | - | - | - |
| 1777847679 | 23.89° C | 26% | 1017 hPa | 0 mm | - | - | - |
| 1777847374 | 23.89° C | 27% | 1017 hPa | 0 mm | - | - | - |
| 1777847073 | 23.33° C | 27% | 1017 hPa | 0 mm | - | - | - |
| 1777846771 | 23.33° C | 27% | 1016.8 hPa | 0 mm | - | - | - |
| 1777846469 | 22.78° C | 28% | 1017 hPa | 0 mm | - | - | - |
* Rain latest hour (hover to see other rain measurements)
** Current wind speed in m/s (hover to see current wind gust speed)